Simultaneous Nadir Overpasses (SNOs) Predictions

Prediction of SNOs between GOES-17 and NOAA-20 Satellite Orbit:

Table of predicted SNOs for the next 14.0 days since TLE Epoch: 8/6/2022
Index Date Time (GOES-17) GOES-17 Lat,Lon NOAA-20 Lat,Lon Distance(km) Time Diff (sec)
1 08/06/2022 10:39:37 0.07,-137.32 0.28,-138.26 107.94 80
2 08/07/2022 10:18:11 0.06,-137.31 -0.73,-133.73 408.11 80
3 08/08/2022 22:40:06 -0.06,-137.29 -0.43,-139.03 197.92 80
4 08/09/2022 22:24:01 -0.05,-137.28 0.59,-134.50 317.70 80
5 08/11/2022 10:45:47 0.05,-137.27 0.60,-139.76 283.57 80
6 08/12/2022 10:24:22 0.05,-137.26 -0.42,-135.23 231.92 80
7 08/13/2022 22:46:16 -0.04,-137.24 -0.79,-140.52 374.68 80
8 08/14/2022 22:30:11 -0.04,-137.23 0.22,-135.99 140.85 80
9 08/16/2022 10:49:17 0.04,-137.22 0.96,-141.26 460.61 80
10 08/17/2022 10:33:11 0.04,-137.20 -0.06,-136.72 54.63 80
11 08/19/2022 22:33:40 -0.04,-137.16 -0.13,-137.49 38.05 80
